Regional Weather Roundup
Issued by NWS

Home | Current Version | Previous Version | Graphics & Text | Print | Product List | Glossary On
Versions: 1 2 3 4 5 6 7 8 9 10 11 12 13 14 15 16 17 18 19 20 21 22 23 24 25 26 27 28 29 30 31 32 33 34 35 36 37 38 39 40 41 42 43 44 45 46 47 48 49 50
000
ASUS43 KDTX 221201
RWRMI
MICHIGAN HOURLY REGIONAL WEATHER ROUNDUP
NATIONAL WEATHER SERVICE DETROIT/PONTIAC MI
700 AM EST MON JAN 22 2018

NOTE: "FAIR" INDICATES FEW OR NO CLOUDS BELOW 12,000 FEET WITH NO
SIGNIFICANT WEATHER AND/OR OBSTRUCTION TO VISIBILITY.

MIZ047>049-052>055-059>063-066>070-074>076-081>083-221300-
SOUTHEAST LOWER MICHIGAN

CITY           SKY/WX    TMP DP  RH WIND       PRES   REMARKS
ADRIAN         FOG       38  38 100 E5        29.85F VSB 1/4 WCI  34
6HR MIN TEMP:  36; 6HR MAX TEMP:  38; 6HR PCP:  0.15;

ANN ARBOR      CLOUDY    39  39 100 NE6       29.85F FOG     WCI  35
BAD AXE        CLOUDY    34  34  99 E9        29.95S FOG     WCI  27
6HR MIN TEMP:  34; 6HR MAX TEMP:  36;

CARO           CLOUDY    35  35  99 E12       29.90F FOG     WCI  27
DETROIT CITY   LGT RAIN  37  37 100 E5        29.89F FOG     WCI  33
6HR MIN TEMP:  36; 6HR MAX TEMP:  37; 6HR PCP:  0.29;

DETROIT        FOG       40  40 100 NE5       29.88F VSB 1/4
6HR MIN TEMP:  38; 6HR MAX TEMP:  40; 6HR PCP:  0.25;

FLINT          LGT RAIN  37  36  96 E9        29.88F FOG     WCI  30
6HR MIN TEMP:  37; 6HR MAX TEMP:  38; 6HR PCP:  0.14;

GROSSE ILE     FOG       43  42  99 CALM      29.87F VSB 1/2
6HR MIN TEMP:  37; 6HR MAX TEMP:  44; 6HR PCP:  0.17;

HILLSDALE      FOG       43  43 100 SE8       29.81S VSB 1/4
HOWELL         LGT RAIN  38  38 100 E5        29.84F WCI  35
6HR MIN TEMP:  37; 6HR MAX TEMP:  39; 6HR PCP:  0.24;


CITY           SKY/WX    TMP DP  RH WIND       PRES   REMARKS
JACKSON        FOG       41  40  96 E8        29.81F VSB 3/4
6HR MIN TEMP:  38; 6HR MAX TEMP:  41; 6HR PCP:  0.13;

LAMBERTVILLE   CLOUDY    44  43  97 SE3       29.85F FOG
6HR MIN TEMP:  39; 6HR MAX TEMP:  45;

LANSING        HVY RAIN  39  39 100 E9        29.82F FOG     WCI  33
6HR MIN TEMP:  37; 6HR MAX TEMP:  39; 6HR PCP:  0.30;

LAPEER         LGT RAIN  36  36 100 E6        29.89F WCI  31
6HR MIN TEMP:  36; 6HR MAX TEMP:  37; 6HR PCP:  0.02;

MONROE         FOG       40  39  93 SE5       29.86F VSB 1/2
6HR MIN TEMP:  37; 6HR MAX TEMP:  41; 6HR PCP:  0.17;

MT. CLEMENS    CLOUDY   N/A N/A N/A NE8         N/A
PONTIAC        LGT RAIN  37  37 100 E6        29.86F FOG     WCI  32
6HR MIN TEMP:  36; 6HR MAX TEMP:  37; 6HR PCP:  0.21;

PORT HOPE        N/A     34  33  96 E13       29.94F WCI  25
6HR MIN TEMP:  32; 6HR MAX TEMP:  34; 6HR PCP:  0.03;

PORT HURON     LGT RAIN  34  34 100 E6        29.91F WCI  29
TRI CITIES     CLOUDY    36  36 100 NE15      29.90F FOG     WCI  27
6HR MIN TEMP:  34; 6HR MAX TEMP:  37; 6HR PCP:  0.06;

MIDLAND        MIX PCPN  35  35  98 NE15G21   29.89F WCI  26
6HR MIN TEMP:  35; 6HR MAX TEMP:  36;

TROY           LGT RAIN  37  37  97 NE7       29.90F WCI  32
SAGINAW HB     CLOUDY    34  34 100 E9        29.89F FOG     WCI  26
$$
MIZ043>046-050>051-056>058-064>065-071>073-077>080-221300-
SOUTHWEST LOWER MICHIGAN

CITY           SKY/WX    TMP DP  RH WIND       PRES   REMARKS
BATTLE CREEK   LGT RAIN  44  43  96 E6        29.78F FOG
6HR MIN TEMP:  40; 6HR MAX TEMP:  44; 6HR PCP:  0.33;

BENTON HARBOR  CLOUDY    49  47  93 E10       29.70F
6HR MIN TEMP:  45; 6HR MAX TEMP:  49; 6HR PCP:  0.19;

BIG RAPIDS     CLOUDY    36  34  94 E9        29.84F FOG     WCI  29
6HR MIN TEMP:  36; 6HR MAX TEMP:  37; 6HR PCP:  0.02;

COLDWATER      CLOUDY    46  46 100 SE9       29.78F FOG
6HR MIN TEMP:  43; 6HR MAX TEMP:  46;

HOLLAND        LGT RAIN  38  37  97 E12       29.77S FOG     WCI  30
6HR MIN TEMP:  38; 6HR MAX TEMP:  39; 6HR PCP:  0.04;

GRAND RAPIDS   RAIN      37  36  96 E13       29.79F FOG     WCI  29
6HR MIN TEMP:  37; 6HR MAX TEMP:  38; 6HR PCP:  0.08;

IONIA          LGT RAIN  37  37 100 NE13      29.80F WCI  28
6HR MIN TEMP:  36; 6HR MAX TEMP:  37; 6HR PCP:  0.02;

KALAMAZOO      LGT RAIN  47  46  97 E5        29.76F FOG
6HR MIN TEMP:  42; 6HR MAX TEMP:  47; 6HR PCP:  0.30;

LUDINGTON      CLOUDY    38  38 100 E10       29.79F FOG     WCI  30
6HR MIN TEMP:  37; 6HR MAX TEMP:  38; 6HR PCP:  0.03;

MARSHALL       LGT RAIN  43  42  98 E5        29.79S VSB 3/4
6HR MIN TEMP:  39; 6HR MAX TEMP:  44; 6HR PCP:  0.15;

MOUNT PLEASANT CLOUDY    37  35  96 E13G23    29.87F FOG     WCI  28
6HR MIN TEMP:  36; 6HR MAX TEMP:  37; 6HR PCP:  0.03;

MUSKEGON       LGT RAIN  39  36  89 E12       29.77F WCI  32
6HR MIN TEMP:  38; 6HR MAX TEMP:  39; 6HR PCP:  0.03;

SOUTH HAVEN    LGT RAIN  46  45  96 E7        29.72F
$$
MIZ016>042-221300-
NORTHERN LOWER MICHIGAN

CITY           SKY/WX    TMP DP  RH WIND       PRES   REMARKS
ALPENA         CLOUDY    33  33 100 E12       30.02S WCI  24
6HR MIN TEMP:  32; 6HR MAX TEMP:  35;

BEAVER ISLAND  FOG       34  33  99 E14       29.98S VSB 3/4 WCI  24
6HR MIN TEMP:  33; 6HR MAX TEMP:  34;

BELLAIRE       CLOUDY    36  33  91 NE8       29.92F WCI  29
6HR MIN TEMP:  32; 6HR MAX TEMP:  36;

CADILLAC       LGT SNOW  35  34  98 E14       29.84F WCI  25
CHARLEVOIX     CLOUDY    35  35 100 E13       29.97F FOG     WCI  26
6HR MIN TEMP:  33; 6HR MAX TEMP:  35;

FRANKFORT      DRIZZLE   37  36  94 E6        29.86F WCI  33
GAYLORD        FOG       32  32 100 E10       29.92F VSB 1/2 WCI  24
6HR MIN TEMP:  31; 6HR MAX TEMP:  35;

GRAYLING       CLOUDY    33  32  93 E9        29.92F FOG     WCI  26
6HR MIN TEMP:  32; 6HR MAX TEMP:  34;

HARBOR SPRINGS CLOUDY    33  33  99 E15G23    29.96F FOG     WCI  23
HOUGHTON LAKE  CLOUDY    34  33  96 E14       29.90F FOG     WCI  25
6HR MIN TEMP:  33; 6HR MAX TEMP:  35; 6HR PCP:  0.04;

MANISTEE       MIX PCPN  37  36  96 E12       29.82F FOG     WCI  29
OSCODA         CLOUDY    34  33  98 NE14      29.97F FOG     WCI  24
6HR MIN TEMP:  31; 6HR MAX TEMP:  34;

PELLSTON       FOG       34  33  96 E14G22    30.00S VSB 3/4 WCI  25
6HR MIN TEMP:  33; 6HR MAX TEMP:  35;

ROGERS CITY    CLOUDY    32  32  99 E14       30.04F WCI  22
TRAVERSE CITY  LGT RAIN  37  34  89 E6        29.89S WCI  32
6HR MIN TEMP:  33; 6HR MAX TEMP:  37; 6HR PCP: TRACE;

$$
MIZ007>008-015-221300-
EASTERN UPPER MICHIGAN

CITY           SKY/WX    TMP DP  RH WIND       PRES   REMARKS
KINROSS        CLOUDY    28  23  81 E14       30.05S WCI  17
6HR MIN TEMP:  28; 6HR MAX TEMP:  34;

MACKINAC ISLAN CLOUDY    32  32 100 E16G24    30.01F WCI  21
6HR MIN TEMP:  32; 6HR MAX TEMP:  33;

NEWBERRY       CLOUDY    28  28  96 NE10      30.01F WCI  19
6HR MIN TEMP:  28; 6HR MAX TEMP:  32;

S. S. MARIE    CLOUDY    29  21  72 NE6       30.07R WCI  23
6HR MIN TEMP:  29; 6HR MAX TEMP:  36;

MUNISING         N/A     32  31  96 NE13      30.01F WCI  22
6HR MIN TEMP:  32; 6HR MAX TEMP:  33;

$$
MIZ004>006-011>014-085-221300-
CENTRAL UPPER MICHIGAN

CITY           SKY/WX    TMP DP  RH WIND       PRES   REMARKS
ESCANABA       CLOUDY    34  31  88 NE10      29.96F WCI  26
6HR MIN TEMP:  33; 6HR MAX TEMP:  34;

MENOMINEE      CLOUDY    34  32  93 NE20G26   29.91F FOG     WCI  22
SAWYER-GWINN   CLOUDY    28  28 100 NE12      29.99S FOG     WCI  18
$$
MIZ001>003-009>011-084-221300-
WESTERN UPPER MICHIGAN

CITY           SKY/WX    TMP DP  RH WIND       PRES   REMARKS
IRON MOUNTAIN  CLOUDY    32  29  88 NE7       29.93F WCI  26
6HR MIN TEMP:  31; 6HR MAX TEMP:  33;

HOUGHTON       CLOUDY    26  22  84 E12       30.03F WCI  16
6HR MIN TEMP:  26; 6HR MAX TEMP:  28;

COPPER HARBOR    N/A     27  23  85 E9G18     30.09S WCI  18
6HR MIN TEMP:  27; 6HR MAX TEMP:  29;

IRONWOOD       MIX PCPN  27  26  96 E12G21    29.97F WCI  17
6HR MIN TEMP:  27; 6HR MAX TEMP:  30; 6HR PCP: TRACE;

$$

ABBREVIATIONS USED IN REMARKS
   TC - TEMPERATURE IN CELSIUS
  WCI - WIND CHILL INDEX
   HX - HEAT INDEX
  VSB - VISIBILITY





USA.gov is the U.S. government's official web portal to all federal, state and local government web resources and services.